• In Romania
  • List of Countries
  • For 7 days
  • Water Temperature
  • Satellite Maps
  • Weather Map
  • Weather Widgets
  • user-avatar
    Login

    Hourly Weather Sydney

    Today, 28 May, Sunday

    Time Temperature Precipitation Wind Pressure Humidity
    00:00 +11°C° 0 mm 4 mps 761 mmHg 91%
    01:00 +10°C° 0 mm 4 mps 760 mmHg 89%
    02:00 +10°C° 0 mm 4 mps 760 mmHg 88%
    03:00 +10°C° 0 mm 4 mps 760 mmHg 87%
    04:00 +10°C° 0 mm 3 mps 759 mmHg 87%
    05:00 +8°C° 0 mm 4 mps 759 mmHg 86%
    06:00 +8°C° 0 mm 4 mps 759 mmHg 85%
    07:00 +8°C° 0 mm 4 mps 759 mmHg 84%
    08:00 +12°C° 0 mm 4 mps 759 mmHg 74%
    09:00 +15°C° 0 mm 5 mps 759 mmHg 65%
    10:00 +20°C° 0 mm 5 mps 758 mmHg 58%
    11:00 +21°C° 0 mm 5 mps 758 mmHg 52%
    12:00 +22°C° 0 mm 5 mps 757 mmHg 47%
    13:00 +23°C° 0 mm 6 mps 757 mmHg 41%
    14:00 +22°C° 0 mm 5 mps 757 mmHg 44%
    15:00 +21°C° 0 mm 5 mps 756 mmHg 46%
    16:00 +21°C° 0 mm 4 mps 756 mmHg 49%
    17:00 +19°C° 0 mm 5 mps 757 mmHg 54%
    18:00 +16°C° 0 mm 5 mps 757 mmHg 59%
    19:00 +14°C° 0 mm 6 mps 758 mmHg 63%
    20:00 +13°C° 0 mm 6 mps 758 mmHg 66%
    21:00 +13°C° 0 mm 5 mps 758 mmHg 70%
    22:00 +12°C° 0 mm 5 mps 759 mmHg 73%
    23:00 +10°C° 0 mm 5 mps 759 mmHg 73%

    Tomorrow, 29 May, Monday

    Time Temperature Precipitation Wind Pressure Humidity
    00:00 +10°C° 0 mm 5 mps 759 mmHg 73%
    01:00 +9°C° 0 mm 5 mps 760 mmHg 73%
    02:00 +8°C° 0 mm 5 mps 760 mmHg 73%
    03:00 +8°C° 0 mm 5 mps 760 mmHg 74%
    04:00 +8°C° 0 mm 5 mps 760 mmHg 74%
    05:00 +7°C° 0 mm 5 mps 761 mmHg 74%
    06:00 +7°C° 0 mm 5 mps 761 mmHg 74%
    07:00 +7°C° 0 mm 5 mps 762 mmHg 74%
    08:00 +9°C° 0 mm 6 mps 762 mmHg 63%
    09:00 +11°C° 0 mm 6 mps 763 mmHg 53%
    10:00 +13°C° 0 mm 6 mps 763 mmHg 42%
    11:00 +14°C° 0 mm 6 mps 763 mmHg 38%
    12:00 +16°C° 0 mm 5 mps 763 mmHg 34%
    13:00 +17°C° 0 mm 5 mps 763 mmHg 30%
    14:00 +17°C° 0 mm 4 mps 763 mmHg 35%
    15:00 +16°C° 0 mm 3 mps 763 mmHg 40%
    16:00 +16°C° 0 mm 3 mps 763 mmHg 45%
    17:00 +13°C° 0 mm 3 mps 764 mmHg 49%
    18:00 +11°C° 0 mm 3 mps 765 mmHg 53%
    19:00 +9°C° 0 mm 3 mps 765 mmHg 56%
    20:00 +8°C° 0 mm 3 mps 766 mmHg 59%
    21:00 +8°C° 0 mm 3 mps 766 mmHg 62%
    22:00 +7°C° 0 mm 3 mps 766 mmHg 65%
    23:00 +7°C° 0 mm 3 mps 766 mmHg 69%

    Day after tomorrow, 30 May, Tuesday

    Time Temperature Precipitation Wind Pressure Humidity
    00:00 +5°C° 0 mm 3 mps 766 mmHg 72%
    01:00 +5°C° 0 mm 3 mps 766 mmHg 75%
    02:00 +4°C° 0 mm 3 mps 766 mmHg 77%
    03:00 +4°C° 0 mm 3 mps 766 mmHg 79%
    04:00 +4°C° 0 mm 3 mps 766 mmHg 81%
    05:00 +4°C° 0 mm 3 mps 766 mmHg 83%
    06:00 +3°C° 0 mm 3 mps 766 mmHg 84%
    07:00 +3°C° 0 mm 3 mps 767 mmHg 86%
    08:00 +7°C° 0 mm 3 mps 766 mmHg 75%
    09:00 +9°C° 0 mm 3 mps 766 mmHg 64%
    10:00 +12°C° 0 mm 3 mps 766 mmHg 53%
    11:00 +14°C° 0 mm 3 mps 766 mmHg 48%
    12:00 +16°C° 0 mm 2 mps 765 mmHg 43%
    13:00 +18°C° 0 mm 2 mps 764 mmHg 37%
    14:00 +17°C° 0 mm 2 mps 764 mmHg 44%
    15:00 +16°C° 0 mm 2 mps 764 mmHg 51%
    16:00 +16°C° 0 mm 2 mps 764 mmHg 58%
    17:00 +14°C° 0 mm 2 mps 764 mmHg 60%
    18:00 +12°C° 0 mm 3 mps 765 mmHg 62%
    19:00 +10°C° 0 mm 3 mps 765 mmHg 63%
    20:00 +10°C° 0 mm 3 mps 765 mmHg 67%
    21:00 +8°C° 0 mm 4 mps 765 mmHg 70%
    22:00 +7°C° 0 mm 4 mps 766 mmHg 74%
    23:00 +7°C° 0 mm 4 mps 765 mmHg 77%

    31 May, Wednesday

    Time Temperature Precipitation Wind Pressure Humidity
    00:00 +7°C° 0 mm 3 mps 765 mmHg 81%
    01:00 +7°C° 0 mm 3 mps 765 mmHg 85%
    02:00 +7°C° 0 mm 3 mps 765 mmHg 84%
    03:00 +7°C° 0 mm 3 mps 765 mmHg 84%
    04:00 +6°C° 0 mm 4 mps 765 mmHg 83%
    05:00 +7°C° 0.2 mm 4 mps 765 mmHg 84%
    06:00 +7°C° 0.2 mm 4 mps 765 mmHg 85%
    07:00 +8°C° 0.2 mm 4 mps 766 mmHg 86%
    08:00 +9°C° 0.3 mm 5 mps 766 mmHg 81%
    09:00 +10°C° 0.3 mm 5 mps 766 mmHg 75%
    10:00 +11°C° 0.3 mm 6 mps 766 mmHg 69%
    11:00 +13°C° 0 mm 6 mps 766 mmHg 60%
    12:00 +14°C° 0 mm 6 mps 765 mmHg 51%
    13:00 +15°C° 0 mm 6 mps 765 mmHg 43%
    14:00 +14°C° 0 mm 6 mps 765 mmHg 45%
    15:00 +14°C° 0 mm 6 mps 765 mmHg 47%
    16:00 +12°C° 0 mm 7 mps 766 mmHg 49%
    17:00 +11°C° 0.7 mm 8 mps 766 mmHg 57%
    18:00 +10°C° 0.7 mm 8 mps 767 mmHg 66%
    19:00 +7°C° 0.7 mm 9 mps 767 mmHg 75%
    20:00 +7°C° 0.4 mm 9 mps 768 mmHg 71%
    21:00 +7°C° 0.4 mm 9 mps 768 mmHg 66%
    22:00 +7°C° 0.4 mm 9 mps 769 mmHg 62%
    23:00 +6°C° 0.1 mm 9 mps 769 mmHg 62%

    1 June, Thursday

    Time Temperature Precipitation Wind Pressure Humidity
    00:00 +6°C° 0.1 mm 9 mps 769 mmHg 62%
    01:00 +6°C° 0.1 mm 9 mps 769 mmHg 63%
    02:00 +6°C° 0.1 mm 8 mps 769 mmHg 64%
    03:00 +5°C° 0.1 mm 8 mps 769 mmHg 65%
    04:00 +5°C° 0.1 mm 8 mps 769 mmHg 66%
    05:00 +5°C° 0.1 mm 8 mps 770 mmHg 66%
    06:00 +5°C° 0.1 mm 8 mps 770 mmHg 67%
    07:00 +5°C° 0.1 mm 8 mps 771 mmHg 67%
    08:00 +7°C° 0.1 mm 8 mps 771 mmHg 62%
    09:00 +9°C° 0.1 mm 8 mps 771 mmHg 56%
    10:00 +11°C° 0.1 mm 8 mps 771 mmHg 51%
    11:00 +12°C° 0.1 mm 8 mps 770 mmHg 49%
    12:00 +13°C° 0.1 mm 8 mps 770 mmHg 46%
    13:00 +15°C° 0.1 mm 8 mps 769 mmHg 44%
    14:00 +15°C° 0 mm 7 mps 769 mmHg 47%
    15:00 +14°C° 0 mm 7 mps 769 mmHg 50%
    16:00 +14°C° 0 mm 6 mps 769 mmHg 53%
    17:00 +11°C° 0 mm 6 mps 770 mmHg 59%
    18:00 +9°C° 0 mm 6 mps 771 mmHg 64%
    19:00 +8°C° 0 mm 7 mps 771 mmHg 70%
    20:00 +8°C° 0 mm 7 mps 771 mmHg 69%
    21:00 +6°C° 0 mm 7 mps 771 mmHg 69%
    22:00 +6°C° 0 mm 7 mps 772 mmHg 68%
    23:00 +6°C° 0 mm 7 mps 771 mmHg 68%

    2 June, Friday

    Time Temperature Precipitation Wind Pressure Humidity
    00:00 +6°C° 0 mm 7 mps 771 mmHg 68%
    01:00 +5°C° 0 mm 7 mps 771 mmHg 69%
    02:00 +5°C° 0 mm 7 mps 771 mmHg 69%
    03:00 +5°C° 0 mm 7 mps 771 mmHg 70%
    04:00 +5°C° 0 mm 7 mps 770 mmHg 71%
    05:00 +5°C° 0.1 mm 7 mps 771 mmHg 72%
    06:00 +5°C° 0.1 mm 7 mps 771 mmHg 74%
    07:00 +6°C° 0.1 mm 7 mps 771 mmHg 75%
    08:00 +9°C° 0.1 mm 7 mps 771 mmHg 70%
    09:00 +11°C° 0.1 mm 8 mps 771 mmHg 65%
    10:00 +13°C° 0.1 mm 8 mps 772 mmHg 59%
    11:00 +13°C° 0.1 mm 8 mps 771 mmHg 59%
    12:00 +15°C° 0.1 mm 8 mps 771 mmHg 58%
    13:00 +16°C° 0.1 mm 8 mps 770 mmHg 58%
    14:00 +16°C° 0.1 mm 8 mps 770 mmHg 61%
    15:00 +16°C° 0.1 mm 7 mps 770 mmHg 64%
    16:00 +15°C° 0.1 mm 7 mps 770 mmHg 67%
    17:00 +15°C° 0 mm 7 mps 771 mmHg 70%
    18:00 +14°C° 0 mm 7 mps 771 mmHg 73%
    19:00 +12°C° 0 mm 7 mps 772 mmHg 76%
    20:00 +13°C° 0 mm 6 mps 772 mmHg 78%
    21:00 +13°C° 0 mm 6 mps 772 mmHg 81%
    22:00 +11°C° 0 mm 6 mps 772 mmHg 83%
    23:00 +11°C° 0 mm 6 mps 772 mmHg 84%
    Show more